Volver al catálogo

COSMOS 595

ActivoMilitarLEO
NORAD 6852·PAYLOAD·🇷🇺 Russia

Lanzado Oct 2, 1973 desde Plesetsk Cosmodrome

Loading…

Próximos Pases (próximas 24 horas)

TLE

ActualizadoSource: Space-Track

Época: Sep 14, 2026, 11:52 UTC

1 06852U 73069H   26257.49486326 -.00000024  00000-0 -46043-4 0  9999
2 06852  73.9975 262.7321 0056246 330.5991 104.5827 12.55488698426745

Sigue COSMOS 595 en tiempo real con AllMySat

Download on the App Store